Time,TemperatureF,DewpointF,PressureIn,WindDirection,WindDirectionDegrees,WindSpeedMPH,WindSpeedGustMPH,Humidity,HourlyPrecipIn,Conditions,Clouds,dailyrainin,SoftwareType,DateUTC
2013-09-01 00:04:00,65.5,57.7,29.70,NW,317,0.0,0.0,76,0.00,CLR,CLR,0.00,WeatherDisplay:10.37,2013-09-01 07:04:00,
2013-09-01 00:15:00,65.5,57.7,29.69,WNW,292,0.0,0.0,76,0.00,CLR,CLR,0.00,WeatherDisplay:10.37,2013-09-01 07:15:00,
2013-09-01 00:24:00,65.5,57.7,29.69,West,277,0.0,0.0,76,0.00,CLR,CLR,0.00,WeatherDisplay:10.37,2013-09-01 07:24:00,
2013-09-01 00:34:00,65.5,57.7,29.70,WSW,239,0.0,0.0,76,0.00,CLR,CLR,0.00,WeatherDisplay:10.37,2013-09-01 07:34:00,
2013-09-01 00:44:00,65.5,57.7,29.70,WSW,238,0.0,0.0,76,0.00,CLR,CLR,0.00,WeatherDisplay:10.37,2013-09-01 07:44:00,
2013-09-01 00:54:00,65.5,57.7,29.71,NNW,341,0.0,0.0,76,0.00,CLR,CLR,0.00,WeatherDisplay:10.37,2013-09-01 07:54:00,
2013-09-01 01:04:00,65.5,57.7,29.71,NW,315,0.0,0.0,76,0.00,CLR,CLR,0.00,WeatherDisplay:10.37,2013-09-01 08:04:00,
2013-09-01 01:09:00,65.5,57.7,29.71,NW,318,0.0,0.0,76,0.00,CLR,CLR,0.00,WeatherDisplay:10.37,2013-09-01 08:09:00,
2013-09-01 01:14:00,65.5,57.7,29.69,NNW,338,0.0,0.0,76,0.00,CLR,CLR,0.00,WeatherDisplay:10.37,2013-09-01 08:14:00,
2013-09-01 01:24:00,65.5,57.7,29.69,NNW,328,0.0,0.0,76,0.00,CLR,CLR,0.00,WeatherDisplay:10.37,2013-09-01 08:24:00,
2013-09-01 01:34:00,65.5,57.7,29.70,NW,317,0.0,0.0,76,0.00,CLR,CLR,0.00,WeatherDisplay:10.37,2013-09-01 08:34:00,
2013-09-01 01:44:00,65.5,57.7,29.70,WNW,302,0.0,0.0,76,0.00,CLR,CLR,0.00,WeatherDisplay:10.37,2013-09-01 08:44:00,
2013-09-01 01:54:00,62.4,56.2,29.70,NNW,344,0.0,0.0,80,0.00,CLR,CLR,0.00,WeatherDisplay:10.37,2013-09-01 08:54:00,
2013-09-01 02:04:00,62.4,56.2,29.70,North,1,0.0,0.0,80,0.00,CLR,CLR,0.00,WeatherDisplay:10.37,2013-09-01 09:04:00,
2013-09-01 12:19:00,72.5,60.9,29.69,SSE,167,1.0,3.0,67,0.00,CLR,CLR,0.00,WeatherDisplay:10.37,2013-09-01 19:19:00,
2013-09-01 12:29:00,73.2,61.6,29.69,SE,134,2.0,3.0,67,0.00,CLR,CLR,0.00,WeatherDisplay:10.37,2013-09-01 19:29:00,
2013-09-01 12:34:00,73.2,61.2,29.69,SSW,201,2.0,5.0,66,0.00,CLR,CLR,0.00,WeatherDisplay:10.37,2013-09-01 19:34:00,
2013-09-01 12:44:00,73.4,61.3,29.69,East,92,2.0,6.0,66,0.00,CLR,CLR,0.00,WeatherDisplay:10.37,2013-09-01 19:44:00,
2013-09-01 12:54:00,73.8,61.3,29.69,ESE,114,2.0,5.0,65,0.00,CLR,CLR,0.00,WeatherDisplay:10.37,2013-09-01 19:54:00,
2013-09-01 13:04:00,74.1,61.6,29.69,SE,128,2.0,5.0,65,0.00,CLR,CLR,0.00,WeatherDisplay:10.37,2013-09-01 20:04:00,
2013-09-01 13:09:00,74.3,61.3,29.69,ENE,75,1.0,3.0,64,0.00,SCT,SCT,0.00,WeatherDisplay:10.37,2013-09-01 20:09:00,
2013-09-01 13:14:00,74.3,60.9,29.69,ESE,105,2.0,9.0,63,0.00,SCT,SCT,0.00,WeatherDisplay:10.37,2013-09-01 20:14:00,
2013-09-01 13:24:00,74.5,61.1,29.69,ESE,119,2.0,5.0,63,0.00,SCT,SCT,0.00,WeatherDisplay:10.37,2013-09-01 20:24:00,
2013-09-01 13:34:00,74.7,60.8,29.68,SSE,147,2.0,7.0,62,0.00,SCT,SCT,0.00,WeatherDisplay:10.37,2013-09-01 20:34:00,
2013-09-01 13:44:00,75.0,61.6,29.68,SSE,152,2.0,4.0,63,0.00,SCT,SCT,0.00,WeatherDisplay:10.37,2013-09-01 20:44:00,
2013-09-01 13:54:00,75.2,61.3,29.68,SSE,149,1.0,5.0,62,0.00,SCT,SCT,0.00,WeatherDisplay:10.37,2013-09-01 20:54:00,
2013-09-01 14:04:00,75.6,60.7,29.68,SE,128,2.0,5.0,60,0.00,SCT,SCT,0.00,WeatherDisplay:10.37,2013-09-01 21:04:00,
2013-09-01 14:09:00,75.7,60.9,29.68,SE,127,2.0,3.0,60,0.00,CLR,CLR,0.00,WeatherDisplay:10.37,2013-09-01 21:09:00,
2013-09-01 14:14:00,75.7,60.4,29.67,SSE,150,2.0,5.0,59,0.00,CLR,CLR,0.00,WeatherDisplay:10.37,2013-09-01 21:14:00,
2013-09-01 14:24:00,76.1,61.2,29.67,South,176,2.0,6.0,60,0.00,CLR,CLR,0.00,WeatherDisplay:10.37,2013-09-01 21:24:00,
2013-09-01 14:34:00,76.5,61.1,29.67,South,170,2.0,6.0,59,0.00,CLR,CLR,0.00,WeatherDisplay:10.37,2013-09-01 21:34:00,
2013-09-01 14:44:00,76.8,61.4,29.67,SSW,213,2.0,5.0,59,0.00,CLR,CLR,0.00,WeatherDisplay:10.37,2013-09-01 21:44:00,
2013-09-01 14:54:00,76.8,60.4,29.67,SE,130,2.0,6.0,57,0.00,CLR,CLR,0.00,WeatherDisplay:10.37,2013-09-01 21:54:00,
2013-09-01 15:04:00,77.2,60.8,29.67,SE,141,2.0,6.0,57,0.00,CLR,CLR,0.00,WeatherDisplay:10.37,2013-09-01 22:04:00,
2013-09-01 15:09:00,77.4,60.9,29.67,SE,141,2.0,5.0,57,0.00,CLR,CLR,0.00,WeatherDisplay:10.37,2013-09-01 22:09:00,
2013-09-01 15:14:00,77.2,60.8,29.66,SSE,159,2.0,6.0,57,0.00,CLR,CLR,0.00,WeatherDisplay:10.37,2013-09-01 22:14:00,
2013-09-01 15:24:00,77.5,61.1,29.66,SSE,159,2.0,6.0,57,0.00,CLR,CLR,0.00,WeatherDisplay:10.37,2013-09-01 22:24:00,
2013-09-01 15:34:00,77.5,60.6,29.66,SE,127,2.0,5.0,56,0.00,CLR,CLR,0.00,WeatherDisplay:10.37,2013-09-01 22:34:00,
2013-09-01 15:44:00,77.7,60.8,29.66,SSE,151,2.0,6.0,56,0.00,CLR,CLR,0.00,WeatherDisplay:10.37,2013-09-01 22:44:00,
2013-09-01 15:54:00,77.9,60.9,29.65,South,179,2.0,5.0,56,0.00,CLR,CLR,0.00,WeatherDisplay:10.37,2013-09-01 22:54:00,
2013-09-01 16:04:00,78.1,61.6,29.65,South,169,1.0,2.0,57,0.00,CLR,CLR,0.00,WeatherDisplay:10.37,2013-09-01 23:04:00,
2013-09-01 16:09:00,78.1,61.1,29.65,South,172,1.0,5.0,56,0.00,SCT,SCT,0.00,WeatherDisplay:10.37,2013-09-01 23:09:00,
2013-09-01 16:14:00,78.3,61.3,29.66,SSE,162,1.0,5.0,56,0.00,SCT,SCT,0.00,WeatherDisplay:10.37,2013-09-01 23:14:00,
2013-09-01 16:24:00,78.1,61.1,29.66,SW,217,1.0,3.0,56,0.00,SCT,SCT,0.00,WeatherDisplay:10.37,2013-09-01 23:24:00,
2013-09-01 16:34:00,77.9,60.9,29.65,South,184,1.0,5.0,56,0.00,SCT,SCT,0.00,WeatherDisplay:10.37,2013-09-01 23:34:00,
2013-09-01 16:44:00,78.3,60.8,29.65,West,259,1.0,2.0,55,0.00,SCT,SCT,0.00,WeatherDisplay:10.37,2013-09-01 23:44:00,
2013-09-01 16:54:00,78.3,60.8,29.65,SSW,192,1.0,3.0,55,0.00,SCT,SCT,0.00,WeatherDisplay:10.37,2013-09-01 23:54:00,
2013-09-01 17:09:00,78.1,60.6,29.65,South,184,2.0,5.0,55,0.00,SCT,SCT,0.00,WeatherDisplay:10.37,2013-09-02 00:09:00,
2013-09-01 17:14:00,78.3,60.8,29.65,SE,129,2.0,3.0,55,0.00,SCT,SCT,0.00,WeatherDisplay:10.37,2013-09-02 00:14:00,
2013-09-01 17:19:00,78.1,60.6,29.65,ENE,72,1.0,2.0,55,0.00,SCT,SCT,0.00,WeatherDisplay:10.37,2013-09-02 00:19:00,
2013-09-01 17:24:00,78.1,60.6,29.65,ESE,103,1.0,5.0,55,0.00,SCT,SCT,0.00,WeatherDisplay:10.37,2013-09-02 00:24:00,
2013-09-01 17:34:00,78.1,60.1,29.65,South,191,2.0,5.0,54,0.00,SCT,SCT,0.00,WeatherDisplay:10.37,2013-09-02 00:34:00,
2013-09-01 17:44:00,78.3,61.8,29.65,South,179,1.0,5.0,57,0.00,SCT,SCT,0.00,WeatherDisplay:10.37,2013-09-02 00:44:00,
2013-09-01 17:54:00,82.4,64.1,29.65,South,176,1.0,5.0,54,0.00,SCT,SCT,0.00,WeatherDisplay:10.37,2013-09-02 00:54:00,
2013-09-01 18:04:00,87.8,65.1,29.65,SSE,156,1.0,3.0,47,0.00,SCT,SCT,0.00,WeatherDisplay:10.37,2013-09-02 01:04:00,
2013-09-01 18:09:00,85.5,62.9,29.65,South,173,1.0,3.0,47,0.00,BKN,BKN,0.00,WeatherDisplay:10.37,2013-09-02 01:09:00,
2013-09-01 18:14:00,83.5,62.3,29.65,SSW,206,1.0,3.0,49,0.00,BKN,BKN,0.00,WeatherDisplay:10.37,2013-09-02 01:14:00,
2013-09-01 18:24:00,81.3,62.0,29.65,NW,320,0.0,2.0,52,0.00,BKN,BKN,0.00,WeatherDisplay:10.37,2013-09-02 01:24:00,
2013-09-01 18:34:00,80.1,61.4,29.65,WSW,249,0.0,1.0,53,0.00,BKN,BKN,0.00,WeatherDisplay:10.37,2013-09-02 01:34:00,
2013-09-01 18:44:00,79.0,61.4,29.65,WSW,253,0.0,1.0,55,0.00,BKN,BKN,0.00,WeatherDisplay:10.37,2013-09-02 01:44:00,
2013-09-01 18:54:00,78.1,61.1,29.65,West,271,0.0,1.0,56,0.00,BKN,BKN,0.00,WeatherDisplay:10.37,2013-09-02 01:54:00,
2013-09-01 19:04:00,77.4,60.9,29.65,West,263,0.0,1.0,57,0.00,BKN,BKN,0.00,WeatherDisplay:10.37,2013-09-02 02:04:00,
2013-09-01 19:09:00,77.0,60.6,29.65,West,272,0.0,1.0,57,0.00,CLR,CLR,0.00,WeatherDisplay:10.37,2013-09-02 02:09:00,
2013-09-01 19:14:00,76.6,60.8,29.65,West,279,0.0,0.0,58,0.00,CLR,CLR,0.00,WeatherDisplay:10.37,2013-09-02 02:14:00,
2013-09-01 19:24:00,76.1,61.2,29.65,West,260,0.0,0.0,60,0.00,CLR,CLR,0.00,WeatherDisplay:10.37,2013-09-02 02:24:00,
2013-09-01 19:29:00,75.6,60.7,29.65,WSW,256,0.0,1.0,60,0.00,CLR,CLR,0.00,WeatherDisplay:10.37,2013-09-02 02:29:00,
2013-09-01 19:34:00,75.4,60.5,29.66,West,270,0.0,2.0,60,0.00,CLR,CLR,0.00,WeatherDisplay:10.37,2013-09-02 02:34:00,
2013-09-01 19:44:00,74.8,60.5,29.66,WSW,257,0.0,2.0,61,0.00,CLR,CLR,0.00,WeatherDisplay:10.37,2013-09-02 02:44:00,
2013-09-01 19:54:00,74.5,60.1,29.66,SSE,164,0.0,3.0,61,0.00,CLR,CLR,0.00,WeatherDisplay:10.37,2013-09-02 02:54:00,
2013-09-01 20:04:00,74.5,60.6,29.66,East,91,1.0,1.0,62,0.00,CLR,CLR,0.00,WeatherDisplay:10.37,2013-09-02 03:04:00,
2013-09-01 20:09:00,74.1,60.7,29.66,NNE,28,0.0,1.0,63,0.00,CLR,CLR,0.00,WeatherDisplay:10.37,2013-09-02 03:09:00,
2013-09-01 20:14:00,73.9,60.5,29.67,NNE,33,0.0,1.0,63,0.00,CLR,CLR,0.00,WeatherDisplay:10.37,2013-09-02 03:14:00,
2013-09-01 20:24:00,73.6,60.6,29.67,WNW,300,0.0,1.0,64,0.00,CLR,CLR,0.00,WeatherDisplay:10.37,2013-09-02 03:24:00,
2013-09-01 20:34:00,73.4,60.9,29.67,WNW,299,0.0,0.0,65,0.00,CLR,CLR,0.00,WeatherDisplay:10.37,2013-09-02 03:34:00,
2013-09-01 20:39:00,73.2,60.7,29.67,NE,45,0.0,1.0,65,0.00,CLR,CLR,0.00,WeatherDisplay:10.37,2013-09-02 03:39:00,
2013-09-01 20:44:00,73.0,60.6,29.67,NW,323,0.0,2.0,65,0.00,CLR,CLR,0.00,WeatherDisplay:10.37,2013-09-02 03:44:00,
2013-09-01 20:54:00,72.7,60.2,29.68,NW,308,0.0,0.0,65,0.00,CLR,CLR,0.00,WeatherDisplay:10.37,2013-09-02 03:54:00,
2013-09-01 21:04:00,72.5,60.5,29.68,WNW,294,0.0,2.0,66,0.00,CLR,CLR,0.00,WeatherDisplay:10.37,2013-09-02 04:04:00,
2013-09-01 21:09:00,72.3,60.3,29.68,NW,309,0.0,1.0,66,0.00,OVC,OVC,0.00,WeatherDisplay:10.37,2013-09-02 04:09:00,
2013-09-01 21:14:00,72.1,60.2,29.70,NNW,339,0.0,1.0,66,0.00,OVC,OVC,0.00,WeatherDisplay:10.37,2013-09-02 04:14:00,
2013-09-01 21:19:00,72.0,60.4,29.70,NW,326,0.0,2.0,67,0.00,OVC,OVC,0.00,WeatherDisplay:10.37,2013-09-02 04:19:00,
2013-09-01 21:24:00,72.0,60.4,29.70,WNW,290,0.0,2.0,67,0.00,OVC,OVC,0.00,WeatherDisplay:10.37,2013-09-02 04:24:00,
2013-09-01 21:34:00,71.6,59.6,29.69,NNW,337,0.0,2.0,66,0.00,OVC,OVC,0.00,WeatherDisplay:10.37,2013-09-02 04:34:00,
2013-09-01 21:44:00,71.2,59.3,29.69,NNE,13,1.0,6.0,66,0.00,OVC,OVC,0.00,WeatherDisplay:10.37,2013-09-02 04:44:00,
2013-09-01 21:54:00,71.1,58.3,29.70,NE,56,2.0,5.0,64,0.00,OVC,OVC,0.00,WeatherDisplay:10.37,2013-09-02 04:54:00,
2013-09-01 21:59:00,70.9,58.1,29.70,ENE,58,2.0,5.0,64,0.00,OVC,OVC,0.00,WeatherDisplay:10.37,2013-09-02 04:59:00,
2013-09-01 22:04:00,70.7,57.9,29.70,NE,46,2.0,6.0,64,0.00,OVC,OVC,0.00,WeatherDisplay:10.37,2013-09-02 05:04:00,